ARIANE 3 DEB, 33537

Orbit data source: Space-Track

ARIANE 3 DEB, 33537 is space debris in HEO originally from a launch on Thu, 08 Sep 1988 UTC launched from the French Guiana (FRGUI). Debris objects in space refer to the collection of defunct objects orbiting the Earth. Examples of debris include non-operational satellites, rocket bodies, and fragments generated from explosions, collisions, or faulty payload assembly.

Loading next visibility...
Identifier
33537, 1988-081M
Orbit
HEO
Country
Flag of FRFR
Related business
Manufacturer
Unknown
Mission
Spacecraft
Bus & Motor
Unknown
Mass
Unknown
Launch date (UTC)
1988-09-08 (37 years ago)
Launch vehicle
Unknown
Launch site
French Guiana (FRGUI)
Object type
Payload
Rocket body
Debris
Shape & HBR
Unknown shape, 1.1 m
Radar Cross Section
Medium (>0.1 m² and <1 m²)

Expand to show TLE details & history
Last TLE update: 12 hours ago

TLE from 12 hours ago
0 ARIANE 3 DEB
1 33537U 88081M   25307.88992855  .00000023  00000-0  00000+0 0  9991
2 33537   6.2840 171.9632 6991221 346.1727 205.8563  2.16853289 99722
Epoch: 2025-11-03T21:21Z
TLE epoch observation values (Epoch: 2025-11-03T21:21:29.826Z)
Latitude
0.80826°
Longitude
-19.05786°
Altitude
35,830.623 km
Speed
1.754 km/s
True Right ascension
22h 58m 48s
True Declination
0° 48' 27"
Sunlit
Object was in daylight at epoch
Visualization orbit readout
Latitude
Unknown
Longitude
Unknown
Altitude
Unknown
Speed
Unknown
Apparent Right ascension
Unknown
Apparent Declination
Unknown
Sunlit
N/A
Visualization observer readout
Local Sidereal Time
04:59:00
Azimuth
Unknown
Elevation
Unknown
Doppler factor
Unknown
Orbital elements
Apogee altitude
36,469.827 km
Perigee altitude
1,209.314 km
Semi-major axis
25,217.708 km
Eccentricity
0.69912
Inclination
6.284°
RAAN
171.9632°
Arg. of periapsis
346.1727°
True anomaly
186.46653°
Mean anomaly
205.8563°
Eccentric anomaly
195.29188°
Mean motion
0.54198 °/min
Orbital period
664.23 mins
BSTAR
0
Loading maneuver chart data...
Computing Atmospheric mass density...
Loading historical data...
Loading historical data...
Loading historical data...
Loading historical data...
Loading historical data...
Loading historical data...
Loading historical data...

Documentation

Showing up to 5 results
|